Hourly Data Report for June 10, 2021

MANIWAKI AIRPORT
QUEBEC
Current Station Operator: ECCC - MSC

46°16'29.000" N
75°59'31.000" W
199.70 m
7034482
71721
WMJ

Download Data

Hourly Data (June 2021)
Hourly Data Report for June 10, 2021
TIME
LST
Temp Definition
°C
Dew Point Definition
°C
Rel Hum Definition
%
Precip. Amount Definition
mm

Wind Dir Definition
10's deg

Wind Spd Definition
km/h
Visibility Definition
km
Stn Press Definition
kPa
Hmdx Definition


Wind Chill Definition


Weather Definition


00:00 11.3 7.0 74 0.0 1 6   99.74     LegendNANA
01:00 10.0 6.3 78 0.0 0 1   99.72     LegendNANA
02:00 11.6 6.0 69 0.0 1 11   99.73     LegendNANA
03:00 10.3 3.8 64 0.0 1 8   99.73     LegendNANA
04:00 9.5 3.4 65 0.0 36 8   99.77     LegendNANA
05:00 8.5 3.5 71 0.0 36 5   99.79     LegendNANA
06:00 11.7 3.7 58 0.0 1 8   99.83     LegendNANA
07:00 13.3 3.9 53 0.0 36 6   99.84     LegendNANA
08:00 16.1 2.7 40 0.0 6 9   99.86     LegendNANA
09:00 17.2 2.6 38 0.0 6 6   99.88     LegendNANA
10:00 17.9 1.6 34 0.0 7 8   99.87     LegendNANA
11:00 18.8 1.3 31 0.0 5 6   99.80     LegendNANA
12:00 20.4 3.2 32 0.0 34 9   99.71     LegendNANA
13:00 20.5 2.4 30 0.0 36 8   99.66     LegendNANA
14:00 21.4 3.2 30 0.0 28 7   99.61     LegendNANA
15:00 21.6 2.8 29 0.0 33 9   99.55     LegendNANA
16:00 22.8 4.2 30 0.0 5 6   99.46     LegendNANA
17:00 20.2 4.9 37 0.0 2 12   99.45     LegendNANA
18:00 19.1 6.3 43 0.0 2 13   99.48     LegendNANA
19:00 17.9 6.3 47 0.0 2 10   99.49     LegendNANA
20:00 15.8 7.9 60 0.0 3 9   99.47     LegendNANA
21:00 14.8 9.0 68 0.0 1 10   99.49     LegendNANA
22:00 14.4 8.8 69 0.0 3 7   99.45     LegendNANA
23:00 13.5 9.6 77 0.0 24 2   99.48     LegendNANA

Notes on Data Quality.

Legend

  • E = Estimated
  • M = Missing
  • NA = Not Available*
  • [empty] = Indicates an unobserved value
Date modified: